Погода в Посёлке им. Карла Маркса

Россия / Владимирская область     56°24′49″N   41°05′50″E
темп.,
°C
ветер,
м/с
пор.,
м/с
влажн.,
%
обл.,
%
осадки,
мм/ч
давл.,
гПа
погр.,
м
15 мая, сб
сб1500:00+13вюв2797100 3.1 1014158
03:00+14юв3997100 3.4 1013197
06:00+16в3696100 0.4 101199
09:00+20ююв4783100 1.1 1011477
12:00+23ююв5975100 5.7 10101189
15:00+20ю81580100 8.7 1010845
18:00+20ю511800 0.1 1010892
21:00+16ююз412905 1.8 1011327
16 мая, вс
вс1600:00+14ю310965 0.1 1011231
03:00+13ю310955 0.1 1011228
06:00+14ююз411931 0.0 1012381
09:00+18ююз59765 0.0 1013745
12:00+21ююз610565 0.0 10131756
15:00+20юз4106298 0.0 1013647
18:00+19юз49711 0.3 1013705
21:00+14ююз36910 0.3 101494
17 мая, пн
пн1700:00+13юз23920 0.0 101544
03:00+12ююз229373 0.0 101621
06:00+14ю128684 0.0 101670
09:00+20ююв23665 0.0 1017515
12:00+24юв235180 0.0 10161184
15:00+25юв455036 0.0 10151399
18:00+24в366637 0.0 1014211
21:00+18вюв36887 0.0 101496
18 мая, вт
вт1800:00+15юв35875 0.0 101466
03:00+14вюв35900 0.0 101374
06:00+16вюв311805 0.0 1012255
09:00+23юв512565 0.0 1012532
12:00+26юв694422 0.0 10111094
15:00+27юв610425 0.0 10101699
18:00+24юв410535 0.0 1009310
21:00+18вюв41172100 0.0 1009252
19 мая, ср
ср1900:00+17юв41080100 0.0 1009207
03:00+17вюв3683100 0.0 1008122
06:00+17юв3785100 0.0 1008232
09:00+21ююз3571100 0.0 1008722
12:00+24ююв51152100 0.0 10052255
15:00+17юв81880100 1.8 10051085
18:00+17юв61382100 2.3 10031091
21:00+12ююв81386100 2.3 10011044